User: anonymous   Login
Location: Unspecified
(0.0000°N, 0.0000°E)
Time: 08:36:13
(UTC+00:00)
Language:

ADEOS II - Orbit

View from above orbital plane
View from above orbital plane
View from above satellite
View from above satellite

Ground track
Ground track

The orbit data is extracted from the following two-line orbital elements,

1 27597U 02056A   17293.81589557  .00000067  00000-0  44505-4 0  9998
2 27597  98.3859 258.1389 0001048  31.1598 328.9645 14.27311739773349
Epoch (UTC): 20 October 2017 19:34:53
Eccentricity: 0.0001048
inclination: 98.3859°
perigee height: 800 km
apogee height: 801 km
right ascension of ascending node: 258.1389°
argument of perigee: 31.1598°
revolutions per day: 14.27311739
mean anomaly at epoch: 328.9645°
orbit number at epoch: 77334

The dashed part of the orbit path shows where the satellite is in the earth's shadow,  

DLR